Terug naar catalogus

STARLINK-11236

ActiefCommunicatieVLEO
NORAD 61062·PAYLOAD·🇺🇸 United States

Gelanceerd Sep 13, 2024 vanaf Vandenberg Space Force Base

Loading…

Volgende Passages (komende 24 uur)

TLE

VersSource: CelesTrak SupGP

Epoch: Sep 15, 2026, 03:14 UTC

1 61062C 24164N   26258.13520833  .00020466  00000+0  16846-3 0  2583
2 61062  53.1566  97.4412 0000974  92.6141 225.4681 15.69716853    13

Volg STARLINK-11236 in realtime met AllMySat

Download on the App Store